Notices

What's New in latest Release from April 7th, 2021:

- Updated Glossary, including Speed of Maximum Gust, and Total Hourly Precipitation

- Updated national and regional climate services offices contacts and prices information

- Addition of station inventory lists for 1981-2010, 1971-2000, and 1961-1990 Normals.

If you haven't already, please take our survey and provide feedback about our website: https://eccc.sondage-survey.ca/f/LanguageSelection.aspx?s=442ca660-fcf1-47c0-95a9-59707d6fd709

Hourly Data Report for December 02, 2020

FORT GOOD HOPE CS
NORTHWEST TERRITORIES
Current Station Operator: ECCC - MSC

66°14'32.044" N
128°38'39.081" W
81.70 m
2201450
71491
ZGH

Download Data

Hourly Data (December 2020)
Hourly Data Report for December 2, 2020
TIME
LST
Temp Definition
°C
Dew Point Definition
°C
Rel Hum Definition
%
Precip. Amount Definition
mm

Wind Dir Definition
10's deg

Wind Spd Definition
km/h
Visibility Definition
km
Stn Press Definition
kPa
Hmdx Definition


Wind Chill Definition


Weather Definition


00:00 -17.4 -19.6 83 0.0 10 7   98.56   -23 LegendNANA
01:00 -16.6 -18.7 84 0.0 8 5   98.51   -20 LegendNANA
02:00 -16.4 -18.5 84 0.0 10 5   98.52   -20 LegendNANA
03:00 -15.9 -18.0 84 0.0 9 6   98.52   -20 LegendNANA
04:00 -15.9 -17.9 84 0.0 10 5   98.62   -20 LegendNANA
05:00 -14.3 -16.0 86 0.0 9 7   98.53   -19 LegendNANA
06:00 -14.2 -16.2 85 0.0 10 5   98.52   -18 LegendNANA
07:00 -12.1 -13.7 88 0.0 9 6   98.51   -16 LegendNANA
08:00 -11.2 -12.7 89 0.0 8 6   98.49   -15 LegendNANA
09:00 -10.8 -12.3 89 0.0 8 3   98.54   -13 LegendNANA
10:00 -10.2 -11.6 89 0.0 9 5   98.51   -13 LegendNANA
11:00 -9.3 -10.6 90 0.0 7 3   98.56   -11 LegendNANA
12:00 -8.5 -9.6 91 0.0 8 6   98.57   -12 LegendNANA
13:00 -7.7 -9.0 91 0.0 8 7   98.54   -11 LegendNANA
14:00 -7.7 -8.9 91 0.0 8 5   98.57   -10 LegendNANA
15:00 -8.0 -9.2 91 0.0 7 5   98.54   -11 LegendNANA
16:00 -7.9 -9.0 91 0.0 8 6   98.54   -11 LegendNANA
17:00 -7.0 -8.1 92 0.0 8 7   98.45   -11 LegendNANA
18:00 -6.7 -7.9 91 0.0 8 7   98.40   -10 LegendNANA
19:00 -7.1 -8.3 91 0.0 5 5   98.35   -10 LegendNANA
20:00 -7.0 -8.3 91 0.0 7 6   98.25   -10 LegendNANA
21:00 -7.2 -8.3 91 0.0 6 4   98.17   -9 LegendNANA
22:00 -6.5 -7.6 92 0.0 8 5   98.06   -9 LegendNANA
23:00 -5.9 -7.0 92 0.0 6 4   97.97   -8 LegendNANA

Notes on Data Quality.

Legend

  • E = Estimated
  • M = Missing
  • NA = Not Available*
  • [empty] = Indicates an unobserved value
Date modified: